• In Romania
  • List of Countries
  • For 7 days
  • Water Temperature
  • Satellite Maps
  • Weather Map
  • Weather Widgets
  • user-avatar
    Login

    Hourly Weather Kipungo

    Today, 26 March, Sunday

    Time Temperature Precipitation Wind Pressure Humidity
    00:00 +21°C° 1.1 mm 1 mps 653 mmHg 94%
    01:00 +20°C° 0 mm 1 mps 653 mmHg 96%
    02:00 +20°C° 0.3 mm 1 mps 653 mmHg 96%
    03:00 +20°C° 0.3 mm 1 mps 653 mmHg 96%
    04:00 +19°C° 0.3 mm 1 mps 653 mmHg 97%
    05:00 +20°C° 0 mm 1 mps 653 mmHg 96%
    06:00 +20°C° 0 mm 1 mps 653 mmHg 95%
    07:00 +19°C° 0 mm 0 mps 654 mmHg 94%
    08:00 +23°C° 0.2 mm 1 mps 654 mmHg 87%
    09:00 +25°C° 0.2 mm 1 mps 655 mmHg 80%
    10:00 +26°C° 0.2 mm 2 mps 655 mmHg 74%
    11:00 +26°C° 0.9 mm 2 mps 655 mmHg 72%
    12:00 +27°C° 0.9 mm 2 mps 654 mmHg 71%
    13:00 +27°C° 0 mm 2 mps 654 mmHg 71%
    14:00 +27°C° 1.1 mm 2 mps 654 mmHg 73%
    15:00 +26°C° 1.1 mm 2 mps 653 mmHg 75%
    16:00 +26°C° 1.1 mm 1 mps 653 mmHg 77%
    17:00 +25°C° 0.9 mm 1 mps 653 mmHg 82%
    18:00 +23°C° 0.9 mm 1 mps 653 mmHg 88%
    19:00 +22°C° 0.9 mm 1 mps 653 mmHg 93%
    20:00 +21°C° 1.4 mm 1 mps 653 mmHg 94%
    21:00 +20°C° 1.4 mm 2 mps 653 mmHg 94%
    22:00 +20°C° 1.4 mm 2 mps 654 mmHg 95%
    23:00 +19°C° 0.4 mm 2 mps 653 mmHg 96%

    Tomorrow, 27 March, Monday

    Time Temperature Precipitation Wind Pressure Humidity
    00:00 +19°C° 0.4 mm 2 mps 653 mmHg 96%
    01:00 +20°C° 0.4 mm 1 mps 653 mmHg 97%
    02:00 +20°C° 0.1 mm 1 mps 653 mmHg 97%
    03:00 +19°C° 0.1 mm 1 mps 653 mmHg 97%
    04:00 +19°C° 0.1 mm 1 mps 652 mmHg 97%
    05:00 +19°C° 0.1 mm 1 mps 653 mmHg 96%
    06:00 +19°C° 0.1 mm 1 mps 653 mmHg 95%
    07:00 +19°C° 0.1 mm 1 mps 653 mmHg 94%
    08:00 +20°C° 0 mm 2 mps 654 mmHg 85%
    09:00 +23°C° 0 mm 2 mps 655 mmHg 77%
    10:00 +25°C° 0 mm 2 mps 655 mmHg 68%
    11:00 +26°C° 0.1 mm 3 mps 655 mmHg 64%
    12:00 +27°C° 0.1 mm 3 mps 655 mmHg 59%
    13:00 +28°C° 0.1 mm 3 mps 655 mmHg 55%
    14:00 +27°C° 0.5 mm 3 mps 654 mmHg 60%
    15:00 +27°C° 0.5 mm 3 mps 653 mmHg 65%
    16:00 +26°C° 0.5 mm 2 mps 653 mmHg 70%
    17:00 +24°C° 0.2 mm 2 mps 653 mmHg 76%
    18:00 +22°C° 0.2 mm 1 mps 653 mmHg 83%
    19:00 +21°C° 0.2 mm 1 mps 653 mmHg 89%
    20:00 +20°C° 0 mm 1 mps 653 mmHg 90%
    21:00 +20°C° 0 mm 1 mps 653 mmHg 91%
    22:00 +20°C° 0 mm 1 mps 654 mmHg 92%
    23:00 +19°C° 0 mm 1 mps 653 mmHg 93%

    Day after tomorrow, 28 March, Tuesday

    Time Temperature Precipitation Wind Pressure Humidity
    00:00 +19°C° 0 mm 1 mps 653 mmHg 93%
    01:00 +19°C° 0 mm 1 mps 653 mmHg 94%
    02:00 +19°C° 0 mm 1 mps 653 mmHg 94%
    03:00 +18°C° 0 mm 1 mps 653 mmHg 95%
    04:00 +18°C° 0 mm 1 mps 652 mmHg 95%
    05:00 +19°C° 0.1 mm 1 mps 653 mmHg 94%
    06:00 +19°C° 0.1 mm 1 mps 653 mmHg 94%
    07:00 +19°C° 0.1 mm 1 mps 654 mmHg 93%
    08:00 +20°C° 0.1 mm 2 mps 654 mmHg 85%
    09:00 +22°C° 0.1 mm 3 mps 655 mmHg 78%
    10:00 +25°C° 0.1 mm 3 mps 655 mmHg 70%
    11:00 +26°C° 0.2 mm 3 mps 655 mmHg 66%
    12:00 +27°C° 0.2 mm 3 mps 654 mmHg 62%
    13:00 +28°C° 0.2 mm 3 mps 654 mmHg 57%
    14:00 +27°C° 0.1 mm 3 mps 654 mmHg 61%
    15:00 +26°C° 0.1 mm 3 mps 653 mmHg 65%
    16:00 +26°C° 0.1 mm 2 mps 653 mmHg 69%
    17:00 +24°C° 0.1 mm 2 mps 653 mmHg 76%
    18:00 +23°C° 0.1 mm 2 mps 653 mmHg 82%
    19:00 +20°C° 0.1 mm 2 mps 653 mmHg 88%
    20:00 +21°C° 0.1 mm 1 mps 653 mmHg 89%
    21:00 +21°C° 0.1 mm 1 mps 653 mmHg 90%
    22:00 +21°C° 0.1 mm 1 mps 654 mmHg 91%
    23:00 +20°C° 0.1 mm 1 mps 653 mmHg 92%

    29 March, Wednesday

    Time Temperature Precipitation Wind Pressure Humidity
    00:00 +20°C° 0.1 mm 1 mps 653 mmHg 93%
    01:00 +20°C° 0.1 mm 1 mps 653 mmHg 94%
    02:00 +19°C° 0.1 mm 1 mps 652 mmHg 94%
    03:00 +19°C° 0.1 mm 1 mps 652 mmHg 95%
    04:00 +19°C° 0.1 mm 1 mps 652 mmHg 96%
    05:00 +19°C° 0 mm 1 mps 652 mmHg 94%
    06:00 +19°C° 0 mm 1 mps 653 mmHg 93%
    07:00 +20°C° 0 mm 1 mps 653 mmHg 91%
    08:00 +21°C° 0 mm 2 mps 654 mmHg 79%
    09:00 +25°C° 0 mm 3 mps 655 mmHg 66%
    10:00 +28°C° 0 mm 4 mps 655 mmHg 53%
    11:00 +29°C° 0 mm 4 mps 655 mmHg 49%
    12:00 +30°C° 0 mm 4 mps 654 mmHg 45%
    13:00 +32°C° 0 mm 4 mps 654 mmHg 41%
    14:00 +31°C° 0.1 mm 3 mps 653 mmHg 43%
    15:00 +30°C° 0.1 mm 3 mps 653 mmHg 46%
    16:00 +30°C° 0.1 mm 2 mps 652 mmHg 48%
    17:00 +28°C° 0.3 mm 2 mps 652 mmHg 58%
    18:00 +25°C° 0.3 mm 2 mps 652 mmHg 67%
    19:00 +22°C° 0.3 mm 1 mps 652 mmHg 77%
    20:00 +22°C° 0.4 mm 1 mps 652 mmHg 79%
    21:00 +21°C° 0.4 mm 1 mps 652 mmHg 82%
    22:00 +20°C° 0.4 mm 1 mps 653 mmHg 84%
    23:00 +20°C° 0.1 mm 1 mps 652 mmHg 86%

    30 March, Thursday

    Time Temperature Precipitation Wind Pressure Humidity
    00:00 +19°C° 0.1 mm 1 mps 652 mmHg 87%
    01:00 +17°C° 0.1 mm 0 mps 652 mmHg 88%
    02:00 +18°C° 0 mm 1 mps 652 mmHg 88%
    03:00 +18°C° 0 mm 1 mps 652 mmHg 88%
    04:00 +18°C° 0 mm 1 mps 651 mmHg 88%
    05:00 +18°C° 0 mm 1 mps 652 mmHg 87%
    06:00 +19°C° 0 mm 1 mps 653 mmHg 86%
    07:00 +19°C° 0 mm 1 mps 653 mmHg 85%
    08:00 +21°C° 0 mm 2 mps 654 mmHg 76%
    09:00 +24°C° 0 mm 3 mps 655 mmHg 66%
    10:00 +27°C° 0 mm 4 mps 656 mmHg 56%
    11:00 +28°C° 0.1 mm 4 mps 655 mmHg 53%
    12:00 +29°C° 0.1 mm 4 mps 655 mmHg 49%
    13:00 +30°C° 0.1 mm 3 mps 654 mmHg 45%
    14:00 +30°C° 0.5 mm 3 mps 654 mmHg 52%
    15:00 +29°C° 0.5 mm 2 mps 653 mmHg 60%
    16:00 +28°C° 0.5 mm 2 mps 653 mmHg 67%
    17:00 +26°C° 0.3 mm 2 mps 653 mmHg 73%
    18:00 +24°C° 0.3 mm 1 mps 653 mmHg 79%
    19:00 +22°C° 0.3 mm 1 mps 653 mmHg 84%
    20:00 +21°C° 1 mm 1 mps 653 mmHg 86%
    21:00 +21°C° 1 mm 1 mps 653 mmHg 88%
    22:00 +20°C° 1 mm 1 mps 654 mmHg 90%
    23:00 +20°C° 0.6 mm 1 mps 653 mmHg 91%

    31 March, Friday

    Time Temperature Precipitation Wind Pressure Humidity
    00:00 +20°C° 0.6 mm 1 mps 653 mmHg 92%
    01:00 +19°C° 0.6 mm 1 mps 653 mmHg 93%
    02:00 +19°C° 0.2 mm 1 mps 653 mmHg 94%
    03:00 +19°C° 0.2 mm 1 mps 652 mmHg 94%
    04:00 +19°C° 0.2 mm 1 mps 652 mmHg 95%
    05:00 +19°C° 0 mm 1 mps 653 mmHg 94%
    06:00 +19°C° 0 mm 1 mps 653 mmHg 94%
    07:00 +19°C° 0 mm 1 mps 654 mmHg 93%
    08:00 +20°C° 0 mm 2 mps 655 mmHg 83%
    09:00 +22°C° 0 mm 3 mps 655 mmHg 73%
    10:00 +25°C° 0 mm 4 mps 656 mmHg 62%
    11:00 +27°C° 0 mm 4 mps 655 mmHg 57%
    12:00 +28°C° 0 mm 4 mps 655 mmHg 51%
    13:00 +29°C° 0 mm 4 mps 655 mmHg 45%
    14:00 +29°C° 0 mm 3 mps 654 mmHg 46%
    15:00 +29°C° 0 mm 3 mps 654 mmHg 47%
    16:00 +29°C° 0 mm 3 mps 654 mmHg 49%
    17:00 +27°C° 0.2 mm 2 mps 653 mmHg 57%
    18:00 +24°C° 0.2 mm 2 mps 653 mmHg 65%
    19:00 +22°C° 0.2 mm 1 mps 653 mmHg 73%
    20:00 +22°C° 0.1 mm 1 mps 653 mmHg 75%
    21:00 +21°C° 0.1 mm 1 mps 654 mmHg 77%
    22:00 +20°C° 0.1 mm 1 mps 654 mmHg 79%
    23:00 +20°C° 0 mm 1 mps 654 mmHg 81%
    Show more